PNF013 KMCO-GOBD

Flight info

Callsign PNF013
Flight time 6h 57m
Altitude FL350
Route MZULO3 LENDS M203 SNAGY 2960N 2957N 2950N 2945N 2842N 2740N 2434N ULTEM UR976 LUMPO R976 LIGOV
Aircraft B773/H-SDE1E2E3FGHIJ2J3J4J5M1RWXY/LB1D1

Departure

Time 2026-04-25 14:04
Airport Orlando International Airport (KMCO)

Arrival

Time 2026-04-25 21:02
Airport Blaise Diagne International Airport (GOBD)
Time Latitude Longitude Altitude Speed Heading
2026-04-25 12:55 28.42509 -81.30066 99 ft 0 kts 28°
2026-04-25 13:45 28.42497 -81.30073 99 ft 4 kts 24°
2026-04-25 13:45 28.42473 -81.30083 97 ft 4 kts 26°
2026-04-25 13:45 28.42459 -81.30095 96 ft 4 kts 59°
2026-04-25 13:46 28.42450 -81.30118 98 ft 4 kts 89°
2026-04-25 13:46 28.42455 -81.30143 98 ft 4 kts 116°
2026-04-25 13:46 28.42462 -81.30161 97 ft 0 kts 112°
2026-04-25 13:50 28.42453 -81.30151 97 ft 8 kts 139°
2026-04-25 13:50 28.42424 -81.30143 99 ft 0 kts 171°
2026-04-25 13:51 28.42418 -81.30142 100 ft 0 kts 172°
2026-04-25 13:52 28.42389 -81.30133 101 ft 4 kts 154°
2026-04-25 13:52 28.42366 -81.30054 99 ft 17 kts 95°
2026-04-25 13:52 28.42363 -81.29921 99 ft 20 kts 90°
2026-04-25 13:53 28.42363 -81.29898 99 ft 0 kts 90°
2026-04-25 13:53 28.42367 -81.29848 99 ft 13 kts 75°
2026-04-25 13:53 28.42459 -81.29798 101 ft 22 kts
2026-04-25 13:53 28.42651 -81.29800 100 ft 21 kts 359°
2026-04-25 13:54 28.42745 -81.29800 101 ft 0 kts
2026-04-25 13:54 28.42754 -81.29800 100 ft 6 kts
2026-04-25 13:54 28.42812 -81.29800 102 ft 0 kts 359°
2026-04-25 13:55 28.42832 -81.29800 101 ft 13 kts 359°
2026-04-25 13:55 28.42995 -81.29803 100 ft 32 kts 359°
2026-04-25 13:55 28.43203 -81.29806 101 ft 30 kts 359°
2026-04-25 13:55 28.43323 -81.29808 100 ft 19 kts 359°
2026-04-25 13:56 28.43371 -81.29808 100 ft 0 kts 359°
2026-04-25 13:56 28.43372 -81.29808 100 ft 0 kts 359°
2026-04-25 13:57 28.43375 -81.29808 100 ft 1 kts 359°
2026-04-25 13:57 28.43383 -81.29808 100 ft 2 kts 359°
2026-04-25 13:58 28.43397 -81.29809 101 ft 2 kts 359°
2026-04-25 13:58 28.43415 -81.29809 100 ft 3 kts 359°
2026-04-25 13:58 28.43421 -81.29809 100 ft 0 kts 359°
2026-04-25 14:02 28.43426 -81.29809 100 ft 6 kts 359°
2026-04-25 14:02 28.43515 -81.29805 100 ft 15 kts 20°
2026-04-25 14:02 28.43546 -81.29723 102 ft 10 kts 84°
2026-04-25 14:02 28.43546 -81.29715 102 ft 6 kts 85°
2026-04-25 14:03 28.43498 -81.29592 103 ft 9 kts 166°
2026-04-25 14:03 28.43491 -81.29591 102 ft 0 kts 171°
2026-04-25 14:03 28.43405 -81.29582 104 ft 50 kts 176°
2026-04-25 14:04 28.42695 -81.29578 101 ft 153 kts 179°
2026-04-25 14:04 28.41361 -81.29563 431 ft 213 kts 179°
2026-04-25 14:04 28.39866 -81.29514 1691 ft 224 kts 178°
2026-04-25 14:04 28.38295 -81.29284 2937 ft 236 kts 162°
2026-04-25 14:05 28.36830 -81.28357 3559 ft 250 kts 145°
2026-04-25 14:05 28.35350 -81.27225 4025 ft 262 kts 146°
2026-04-25 14:05 28.33884 -81.25971 4094 ft 266 kts 136°
2026-04-25 14:05 28.32863 -81.24251 4105 ft 266 kts 105°
2026-04-25 14:06 28.32849 -81.22198 4365 ft 262 kts 75°
2026-04-25 14:06 28.33457 -81.20234 4897 ft 268 kts 68°
2026-04-25 14:06 28.34183 -81.18274 5316 ft 272 kts 66°
2026-04-25 14:06 28.34934 -81.16315 5842 ft 274 kts 66°
2026-04-25 14:07 28.35702 -81.14319 6382 ft 275 kts 66°
2026-04-25 14:07 28.36468 -81.12324 6917 ft 278 kts 66°
2026-04-25 14:07 28.37239 -81.10304 7449 ft 281 kts 65°
2026-04-25 14:07 28.38015 -81.08261 7988 ft 285 kts 65°
2026-04-25 14:08 28.38800 -81.06185 8541 ft 287 kts 65°
2026-04-25 14:08 28.39589 -81.04093 9089 ft 290 kts 65°
2026-04-25 14:08 28.40385 -81.01979 9667 ft 293 kts 65°
2026-04-25 14:08 28.41189 -80.99839 10207 ft 296 kts 65°
2026-04-25 14:09 28.41998 -80.97683 10734 ft 299 kts 65°
2026-04-25 14:09 28.42825 -80.95480 11157 ft 313 kts 65°
2026-04-25 14:09 28.43712 -80.93117 11437 ft 335 kts 65°
2026-04-25 14:09 28.44016 -80.92307 11628 ft 338 kts 65°
2026-04-25 14:10 28.45592 -80.88094 12613 ft 358 kts 65°
2026-04-25 14:10 28.46579 -80.85455 13201 ft 369 kts 65°
2026-04-25 14:10 28.47454 -80.82667 13792 ft 382 kts 72°
2026-04-25 14:10 28.48036 -80.79683 14320 ft 394 kts 80°
2026-04-25 14:11 28.48405 -80.76561 14865 ft 404 kts 81°
2026-04-25 14:11 28.48749 -80.73355 15408 ft 415 kts 82°
2026-04-25 14:11 28.49093 -80.70076 15960 ft 422 kts 82°
2026-04-25 14:11 28.49444 -80.66752 16458 ft 428 kts 81°
2026-04-25 14:12 28.49807 -80.63378 17024 ft 432 kts 81°
2026-04-25 14:12 28.50177 -80.59975 17594 ft 437 kts 81°
2026-04-25 14:12 28.50554 -80.56538 18171 ft 441 kts 81°
2026-04-25 14:12 28.50936 -80.53068 18689 ft 445 kts 81°
2026-04-25 14:13 28.51322 -80.49562 19208 ft 449 kts 81°
2026-04-25 14:13 28.51710 -80.46030 19726 ft 453 kts 81°
2026-04-25 14:13 28.52099 -80.42468 20264 ft 457 kts 81°
2026-04-25 14:13 28.52490 -80.38884 20808 ft 460 kts 81°
2026-04-25 14:14 28.52884 -80.35263 21366 ft 463 kts 81°
2026-04-25 14:14 28.53453 -80.31667 21918 ft 464 kts 73°
2026-04-25 14:14 28.54436 -80.28176 22497 ft 465 kts 66°
2026-04-25 14:14 28.55741 -80.24821 23086 ft 466 kts 59°
2026-04-25 14:15 28.57355 -80.21633 23663 ft 466 kts 57°
2026-04-25 14:15 28.57907 -80.20579 23832 ft 467 kts 57°
2026-04-25 14:15 28.60710 -80.15294 24678 ft 470 kts 57°
2026-04-25 14:15 28.62398 -80.12111 25186 ft 471 kts 57°
2026-04-25 14:16 28.64082 -80.08915 25730 ft 473 kts 57°
2026-04-25 14:16 28.65761 -80.05708 26248 ft 473 kts 57°
2026-04-25 14:16 28.67438 -80.02488 26797 ft 474 kts 58°
2026-04-25 14:16 28.69114 -79.99261 27342 ft 474 kts 58°
2026-04-25 14:17 28.70785 -79.96035 27909 ft 474 kts 58°
2026-04-25 14:17 28.72452 -79.92814 28474 ft 473 kts 58°
2026-04-25 14:17 28.74120 -79.89589 29060 ft 472 kts 58°
2026-04-25 14:17 28.75779 -79.86380 29648 ft 471 kts 58°
2026-04-25 14:18 28.77435 -79.83173 30212 ft 470 kts 58°
2026-04-25 14:18 28.79085 -79.79977 30725 ft 468 kts 58°
2026-04-25 14:18 28.80726 -79.76796 31242 ft 465 kts 58°
2026-04-25 14:18 28.82359 -79.73629 31769 ft 463 kts 58°
2026-04-25 14:19 28.83978 -79.70484 32297 ft 460 kts 58°
2026-04-25 14:19 28.85589 -79.67354 32830 ft 457 kts 58°
2026-04-25 14:19 28.87197 -79.64230 33017 ft 462 kts 58°
2026-04-25 14:20 28.90511 -79.57788 33005 ft 479 kts 58°
2026-04-25 14:20 28.93923 -79.51138 33008 ft 491 kts 58°
2026-04-25 14:21 28.97377 -79.44391 32996 ft 493 kts 58°
2026-04-25 14:21 29.00807 -79.37678 32990 ft 488 kts 58°
2026-04-25 14:22 29.04213 -79.31004 33002 ft 487 kts 58°
2026-04-25 14:22 29.07617 -79.24325 33004 ft 488 kts 58°
2026-04-25 14:23 29.11020 -79.17637 33000 ft 488 kts 58°
2026-04-25 14:23 29.14423 -79.10937 32997 ft 488 kts 58°
2026-04-25 14:24 29.17821 -79.04236 33001 ft 488 kts 58°
2026-04-25 14:24 29.21220 -78.97524 33000 ft 488 kts 58°
2026-04-25 14:25 29.24613 -78.90811 32997 ft 488 kts 58°
2026-04-25 14:25 29.28005 -78.84088 33000 ft 489 kts 58°
2026-04-25 14:26 29.31394 -78.77359 33000 ft 489 kts 58°
2026-04-25 14:26 29.34785 -78.70617 33002 ft 489 kts 58°
2026-04-25 14:27 29.37708 -78.63603 32995 ft 491 kts 70°
2026-04-25 14:27 29.39775 -78.56153 33009 ft 492 kts 74°
2026-04-25 14:28 29.40995 -78.48443 33010 ft 493 kts 81°
2026-04-25 14:28 29.41941 -78.40673 33004 ft 493 kts 81°
2026-04-25 14:29 29.42903 -78.32895 33002 ft 493 kts 81°
2026-04-25 14:29 29.43883 -78.25124 33003 ft 493 kts 81°
2026-04-25 14:30 29.44865 -78.17355 33002 ft 493 kts 81°
2026-04-25 14:30 29.46327 -78.05705 33004 ft 493 kts 81°
2026-04-25 14:31 29.47295 -77.97938 33003 ft 493 kts 81°
2026-04-25 14:31 29.48259 -77.90163 33003 ft 493 kts 81°
2026-04-25 14:32 29.49218 -77.82388 33006 ft 493 kts 81°
2026-04-25 14:32 29.50172 -77.74625 33001 ft 493 kts 81°
2026-04-25 14:33 29.51122 -77.66853 33000 ft 492 kts 81°
2026-04-25 14:33 29.52069 -77.59079 33007 ft 492 kts 81°
2026-04-25 14:34 29.53011 -77.51312 33006 ft 492 kts 81°
2026-04-25 14:34 29.53949 -77.43542 33007 ft 492 kts 81°
2026-04-25 14:35 29.54882 -77.35770 33002 ft 492 kts 82°
2026-04-25 14:35 29.55810 -77.28001 33007 ft 492 kts 82°
2026-04-25 14:36 29.56734 -77.20227 33006 ft 492 kts 82°
2026-04-25 14:36 29.57654 -77.12449 33006 ft 492 kts 82°
2026-04-25 14:37 29.58569 -77.04674 33006 ft 492 kts 82°
2026-04-25 14:37 29.59479 -76.96896 33008 ft 492 kts 82°
2026-04-25 14:38 29.60385 -76.89119 33007 ft 492 kts 82°
2026-04-25 14:38 29.60914 -76.81296 33011 ft 492 kts 88°
2026-04-25 14:39 29.61095 -76.73453 33012 ft 492 kts 88°
2026-04-25 14:39 29.61263 -76.65606 33009 ft 492 kts 88°
2026-04-25 14:40 29.61450 -76.57750 33010 ft 492 kts 88°
2026-04-25 14:40 29.61644 -76.49904 33012 ft 492 kts 88°
2026-04-25 14:41 29.61837 -76.42057 33012 ft 492 kts 88°
2026-04-25 14:41 29.62025 -76.34203 33012 ft 492 kts 88°
2026-04-25 14:42 29.62147 -76.28972 33012 ft 493 kts 88°
2026-04-25 14:42 29.62384 -76.18499 33017 ft 493 kts 88°
2026-04-25 14:43 29.62557 -76.10648 33016 ft 492 kts 88°
2026-04-25 14:43 29.62725 -76.02797 33012 ft 492 kts 88°
2026-04-25 14:44 29.62888 -75.94950 33016 ft 492 kts 88°
2026-04-25 14:44 29.63046 -75.87103 33016 ft 492 kts 89°
2026-04-25 14:45 29.63200 -75.79253 33021 ft 492 kts 89°
2026-04-25 14:45 29.63350 -75.71408 33018 ft 492 kts 89°
2026-04-25 14:46 29.63494 -75.63569 33023 ft 492 kts 89°
2026-04-25 14:46 29.63634 -75.55726 33019 ft 492 kts 89°
2026-04-25 14:47 29.63725 -75.50498 33020 ft 492 kts 89°
2026-04-25 14:47 29.63900 -75.40042 33026 ft 492 kts 89°
2026-04-25 14:48 29.64027 -75.32203 33020 ft 491 kts 89°
2026-04-25 14:48 29.64148 -75.24367 33020 ft 491 kts 89°
2026-04-25 14:49 29.64265 -75.16527 33020 ft 491 kts 89°
2026-04-25 14:49 29.64377 -75.08686 33021 ft 491 kts 89°
2026-04-25 14:50 29.64485 -75.00849 33026 ft 492 kts 89°
2026-04-25 14:50 29.64588 -74.93009 33018 ft 491 kts 89°
2026-04-25 14:51 29.64686 -74.85180 33020 ft 491 kts 89°
2026-04-25 14:51 29.64780 -74.77343 33018 ft 491 kts 89°
2026-04-25 14:52 29.64869 -74.69516 33024 ft 491 kts 89°
2026-04-25 14:52 29.64926 -74.64289 33026 ft 491 kts 89°
2026-04-25 14:53 29.65034 -74.53852 33025 ft 491 kts 89°
2026-04-25 14:53 29.65109 -74.46017 33031 ft 491 kts 89°
2026-04-25 14:54 29.65180 -74.38187 33025 ft 491 kts 89°
2026-04-25 14:54 29.65246 -74.30353 33026 ft 491 kts 89°
2026-04-25 14:55 29.65307 -74.22515 33030 ft 491 kts 89°
2026-04-25 14:55 29.65364 -74.14678 33029 ft 491 kts 89°
2026-04-25 14:56 29.65417 -74.06845 33028 ft 491 kts 89°
2026-04-25 14:56 29.65464 -73.99009 33031 ft 491 kts 89°
2026-04-25 14:57 29.65507 -73.91171 33028 ft 491 kts 89°
2026-04-25 14:57 29.65546 -73.83331 33033 ft 491 kts 90°
2026-04-25 14:58 29.65580 -73.75494 33028 ft 491 kts 90°
2026-04-25 14:58 29.65609 -73.67656 33033 ft 491 kts 90°
2026-04-25 14:59 29.65634 -73.59813 33037 ft 493 kts 90°
2026-04-25 14:59 29.65654 -73.51860 33048 ft 505 kts 90°
2026-04-25 15:00 29.65670 -73.43733 33044 ft 513 kts 90°
2026-04-25 15:00 29.65681 -73.35529 33037 ft 515 kts 90°
2026-04-25 15:01 29.65687 -73.27323 33035 ft 514 kts 90°
2026-04-25 15:01 29.65688 -73.19139 33035 ft 513 kts 90°
2026-04-25 15:02 29.65684 -73.10943 33031 ft 514 kts 90°
2026-04-25 15:02 29.65675 -73.02748 33037 ft 514 kts 90°
2026-04-25 15:03 29.65660 -72.94556 33038 ft 513 kts 90°
2026-04-25 15:03 29.65641 -72.86369 33038 ft 513 kts 90°
2026-04-25 15:04 29.65617 -72.78176 33042 ft 513 kts 90°
2026-04-25 15:04 29.65587 -72.69983 33040 ft 513 kts 90°
2026-04-25 15:05 29.65553 -72.61796 33044 ft 513 kts 90°
2026-04-25 15:06 29.65492 -72.49512 33051 ft 513 kts 90°
2026-04-25 15:06 29.65445 -72.41327 33043 ft 513 kts 90°
2026-04-25 15:07 29.65393 -72.33149 33043 ft 513 kts 90°
2026-04-25 15:07 29.65336 -72.24961 33041 ft 513 kts 90°
2026-04-25 15:08 29.65274 -72.16784 33043 ft 513 kts 90°
2026-04-25 15:08 29.65208 -72.08610 33042 ft 513 kts 90°
2026-04-25 15:09 29.65136 -72.00430 33042 ft 512 kts 90°
2026-04-25 15:09 29.65018 -71.88174 33043 ft 512 kts 90°
2026-04-25 15:10 29.64934 -71.80003 33042 ft 512 kts 91°
2026-04-25 15:11 29.64798 -71.67748 33043 ft 512 kts 91°
2026-04-25 15:11 29.64701 -71.59582 33044 ft 512 kts 91°
2026-04-25 15:12 29.64546 -71.47333 33041 ft 512 kts 91°
2026-04-25 15:12 29.64474 -71.41884 33039 ft 512 kts 91°
2026-04-25 15:13 29.64263 -71.26914 33047 ft 512 kts 91°
2026-04-25 15:14 29.64141 -71.18745 33044 ft 512 kts 91°
2026-04-25 15:14 29.64014 -71.10569 33049 ft 512 kts 91°
2026-04-25 15:15 29.63882 -71.02395 33044 ft 513 kts 91°
2026-04-25 15:15 29.63745 -70.94221 33045 ft 513 kts 91°
2026-04-25 15:16 29.63603 -70.86041 33045 ft 513 kts 91°
2026-04-25 15:16 29.63380 -70.73764 33046 ft 513 kts 91°
2026-04-25 15:17 29.63146 -70.61482 33048 ft 513 kts 91°
2026-04-25 15:18 29.62983 -70.53294 33050 ft 514 kts 91°
2026-04-25 15:18 29.62730 -70.41011 33050 ft 514 kts 91°
2026-04-25 15:19 29.62614 -70.35548 33048 ft 514 kts 91°
2026-04-25 15:19 29.62374 -70.24621 33046 ft 514 kts 91°
2026-04-25 15:20 29.62189 -70.16421 33050 ft 514 kts 91°
2026-04-25 15:20 29.61998 -70.08222 33052 ft 514 kts 91°
2026-04-25 15:21 29.61803 -70.00016 33052 ft 515 kts 91°
2026-04-25 15:21 29.61602 -69.91818 33050 ft 515 kts 91°
2026-04-25 15:22 29.61397 -69.83613 33053 ft 515 kts 91°
2026-04-25 15:22 29.61186 -69.75414 33054 ft 515 kts 91°
2026-04-25 15:23 29.60970 -69.67211 33053 ft 515 kts 91°
2026-04-25 15:23 29.60749 -69.59007 33053 ft 515 kts 91°
2026-04-25 15:24 29.60523 -69.50801 33054 ft 515 kts 91°
2026-04-25 15:24 29.60370 -69.45320 33056 ft 516 kts 91°
2026-04-25 15:25 29.60055 -69.34362 33055 ft 516 kts 92°
2026-04-25 15:25 29.59813 -69.26129 33057 ft 517 kts 92°
2026-04-25 15:26 29.59566 -69.17882 33056 ft 518 kts 92°
2026-04-25 15:26 29.59313 -69.09611 33058 ft 520 kts 92°
2026-04-25 15:27 29.59053 -69.01318 33055 ft 521 kts 92°
2026-04-25 15:28 29.58654 -68.88848 33058 ft 523 kts 92°
2026-04-25 15:28 29.58380 -68.80514 33057 ft 524 kts 92°
2026-04-25 15:29 29.58101 -68.72162 33058 ft 525 kts 92°
2026-04-25 15:29 29.57816 -68.63792 33058 ft 526 kts 92°
2026-04-25 15:30 29.57524 -68.55402 33059 ft 527 kts 92°
2026-04-25 15:30 29.57227 -68.46996 33057 ft 528 kts 92°
2026-04-25 15:31 29.56925 -68.38578 33057 ft 529 kts 93°
2026-04-25 15:31 29.56616 -68.30145 33056 ft 530 kts 93°
2026-04-25 15:32 29.56301 -68.21684 33057 ft 532 kts 93°
2026-04-25 15:32 29.55980 -68.13213 33058 ft 533 kts 93°
2026-04-25 15:33 29.55487 -68.00460 33058 ft 535 kts 93°
2026-04-25 15:33 29.55151 -67.91938 33056 ft 536 kts 93°
2026-04-25 15:34 29.54808 -67.83402 33059 ft 537 kts 94°
2026-04-25 15:34 29.54576 -67.77693 33058 ft 538 kts 94°
2026-04-25 15:35 29.53923 -67.61946 33059 ft 541 kts 94°
2026-04-25 15:36 29.53374 -67.49021 33057 ft 543 kts 94°
2026-04-25 15:36 29.52999 -67.40377 33057 ft 544 kts 94°
2026-04-25 15:37 29.52618 -67.31714 33058 ft 545 kts 94°
2026-04-25 15:37 29.52230 -67.23038 33057 ft 546 kts 94°
2026-04-25 15:38 29.51837 -67.14346 33054 ft 547 kts 94°
2026-04-25 15:38 29.51437 -67.05644 33055 ft 548 kts 95°
2026-04-25 15:39 29.51030 -66.96925 33058 ft 549 kts 95°
2026-04-25 15:39 29.50618 -66.88195 33057 ft 549 kts 95°
2026-04-25 15:40 29.50339 -66.82366 33054 ft 550 kts 95°
2026-04-25 15:40 29.49774 -66.70701 33056 ft 551 kts 95°
2026-04-25 15:41 29.49342 -66.61934 33056 ft 551 kts 95°
2026-04-25 15:41 29.48904 -66.53165 33054 ft 552 kts 95°
2026-04-25 15:42 29.48460 -66.44383 33060 ft 553 kts 95°
2026-04-25 15:42 29.48010 -66.35589 33053 ft 553 kts 95°
2026-04-25 15:43 29.47553 -66.26791 33058 ft 554 kts 95°
2026-04-25 15:43 29.47091 -66.17984 33059 ft 554 kts 96°
2026-04-25 15:44 29.46622 -66.09177 33052 ft 554 kts 96°
2026-04-25 15:44 29.46148 -66.00372 33054 ft 554 kts 96°
2026-04-25 15:45 29.45667 -65.91558 33056 ft 555 kts 96°
2026-04-25 15:45 29.45343 -65.85681 33054 ft 555 kts 96°
2026-04-25 15:46 29.44688 -65.73932 33056 ft 555 kts 96°
2026-04-25 15:46 29.44190 -65.65112 33051 ft 555 kts 96°
2026-04-25 15:47 29.43685 -65.56296 33055 ft 555 kts 96°
2026-04-25 15:47 29.43175 -65.47475 33055 ft 555 kts 96°
2026-04-25 15:48 29.42659 -65.38657 33054 ft 555 kts 96°
2026-04-25 15:48 29.42137 -65.29831 33051 ft 556 kts 96°
2026-04-25 15:49 29.41608 -65.21008 33052 ft 556 kts 96°
2026-04-25 15:49 29.41074 -65.12183 33053 ft 556 kts 96°
2026-04-25 15:50 29.40534 -65.03349 33048 ft 557 kts 96°
2026-04-25 15:50 29.39987 -64.94507 33049 ft 557 kts 97°
2026-04-25 15:51 29.39619 -64.88608 33048 ft 557 kts 97°
2026-04-25 15:51 29.38874 -64.76799 33049 ft 559 kts 97°
2026-04-25 15:52 29.38307 -64.67930 33051 ft 560 kts 97°
2026-04-25 15:52 29.37734 -64.59042 33048 ft 561 kts 97°
2026-04-25 15:53 29.37153 -64.50136 33048 ft 562 kts 97°
2026-04-25 15:53 29.36565 -64.41206 33049 ft 564 kts 97°
2026-04-25 15:54 29.35968 -64.32247 33048 ft 565 kts 98°
2026-04-25 15:54 29.35365 -64.23265 33050 ft 567 kts 98°
2026-04-25 15:55 29.34754 -64.14266 33046 ft 569 kts 98°
2026-04-25 15:55 29.34134 -64.05231 33047 ft 570 kts 98°
2026-04-25 15:56 29.33507 -63.96177 33043 ft 572 kts 98°
2026-04-25 15:56 29.32871 -63.87092 33045 ft 574 kts 98°
2026-04-25 15:57 29.32229 -63.77994 33043 ft 575 kts 99°
2026-04-25 15:57 29.31578 -63.68875 33041 ft 576 kts 99°
2026-04-25 15:58 29.30920 -63.59740 33044 ft 577 kts 99°
2026-04-25 15:58 29.30254 -63.50579 33042 ft 579 kts 99°
2026-04-25 15:59 29.29580 -63.41396 33041 ft 580 kts 99°
2026-04-25 15:59 29.28898 -63.32192 33040 ft 582 kts 99°
2026-04-25 16:00 29.28439 -63.26043 33040 ft 583 kts 99°
2026-04-25 16:00 29.27510 -63.13719 33037 ft 584 kts 99°
2026-04-25 16:01 29.26805 -63.04464 33036 ft 585 kts 100°
2026-04-25 16:01 29.26092 -62.95188 33035 ft 586 kts 100°
2026-04-25 16:02 29.25734 -62.90553 33210 ft 586 kts 100°
2026-04-25 16:02 29.25374 -62.85915 33448 ft 585 kts 100°
2026-04-25 16:02 29.25013 -62.81284 33708 ft 585 kts 101°
2026-04-25 16:02 29.24650 -62.76660 33973 ft 584 kts 101°
2026-04-25 16:03 29.24286 -62.72041 34195 ft 584 kts 101°
2026-04-25 16:03 29.23921 -62.67425 34422 ft 583 kts 101°
2026-04-25 16:03 29.23555 -62.62818 34641 ft 582 kts 101°
2026-04-25 16:03 29.23187 -62.58211 34868 ft 582 kts 101°
2026-04-25 16:04 29.22818 -62.53611 34971 ft 584 kts 102°
2026-04-25 16:04 29.22442 -62.48977 35017 ft 586 kts 102°
2026-04-25 16:04 29.21684 -62.39664 35038 ft 591 kts 102°
2026-04-25 16:05 29.20915 -62.30299 35043 ft 594 kts 102°
2026-04-25 16:06 29.19755 -62.16189 35041 ft 595 kts 101°
2026-04-25 16:06 29.18972 -62.06789 35031 ft 594 kts 101°
2026-04-25 16:07 29.18181 -61.97405 35036 ft 594 kts 101°
2026-04-25 16:07 29.17382 -61.88015 35035 ft 594 kts 101°
2026-04-25 16:08 29.16577 -61.78631 35037 ft 594 kts 101°
2026-04-25 16:08 29.15766 -61.69240 35032 ft 594 kts 102°
2026-04-25 16:09 29.14948 -61.59851 35038 ft 594 kts 102°
2026-04-25 16:09 29.14123 -61.50460 35035 ft 594 kts 101°
2026-04-25 16:10 29.13293 -61.41074 35035 ft 594 kts 101°
2026-04-25 16:10 29.12457 -61.31704 35031 ft 594 kts 101°
2026-04-25 16:11 29.11614 -61.22334 35036 ft 593 kts 101°
2026-04-25 16:11 29.10765 -61.12976 35031 ft 592 kts 101°
2026-04-25 16:12 29.09914 -61.03651 35030 ft 590 kts 101°
2026-04-25 16:12 29.09059 -60.94359 35030 ft 588 kts 101°
2026-04-25 16:13 29.08198 -60.85091 35034 ft 587 kts 101°
2026-04-25 16:13 29.07334 -60.75846 35033 ft 586 kts 100°
2026-04-25 16:14 29.06462 -60.66599 35029 ft 586 kts 100°
2026-04-25 16:14 29.05586 -60.57367 35031 ft 585 kts 100°
2026-04-25 16:15 29.04704 -60.48137 35033 ft 586 kts 100°
2026-04-25 16:15 29.03813 -60.38891 35028 ft 587 kts 100°
2026-04-25 16:16 29.02915 -60.29627 35029 ft 588 kts 100°
2026-04-25 16:16 29.02009 -60.20349 35031 ft 589 kts 100°
2026-04-25 16:17 29.01096 -60.11061 35033 ft 590 kts 100°
2026-04-25 16:17 29.00185 -60.01754 35031 ft 592 kts 99°
2026-04-25 16:18 28.99956 -59.92332 35039 ft 596 kts 92°
2026-04-25 16:18 29.00112 -59.82869 35026 ft 597 kts 91°
2026-04-25 16:19 29.00264 -59.73403 35030 ft 598 kts 91°
2026-04-25 16:19 29.00364 -59.63923 35026 ft 598 kts 92°
2026-04-25 16:20 29.00465 -59.49693 35026 ft 599 kts 92°
2026-04-25 16:21 29.00559 -59.35469 35024 ft 598 kts 92°
2026-04-25 16:21 29.00616 -59.25987 35023 ft 598 kts 92°
2026-04-25 16:22 29.00667 -59.16516 35029 ft 597 kts 92°
2026-04-25 16:22 29.00711 -59.07045 35021 ft 597 kts 92°
2026-04-25 16:23 29.00748 -58.97585 34993 ft 596 kts 93°
2026-04-25 16:23 29.00777 -58.88126 35023 ft 597 kts 93°
2026-04-25 16:24 29.00800 -58.78657 35025 ft 597 kts 93°
2026-04-25 16:24 29.00817 -58.69191 35021 ft 597 kts 93°
2026-04-25 16:25 29.00828 -58.59733 35017 ft 596 kts 93°
2026-04-25 16:25 29.00831 -58.50279 35021 ft 596 kts 93°
2026-04-25 16:26 29.00828 -58.40841 35019 ft 595 kts 94°
2026-04-25 16:26 29.00818 -58.31401 35029 ft 595 kts 94°
2026-04-25 16:27 29.00802 -58.21960 35025 ft 596 kts 94°
2026-04-25 16:27 29.00779 -58.12523 35025 ft 596 kts 94°
2026-04-25 16:28 29.00750 -58.03079 35019 ft 596 kts 94°
2026-04-25 16:28 29.00714 -57.93640 35017 ft 595 kts 94°
2026-04-25 16:29 29.00671 -57.84202 35024 ft 595 kts 94°
2026-04-25 16:29 29.00622 -57.74768 35019 ft 595 kts 94°
2026-04-25 16:30 29.00566 -57.65345 35015 ft 595 kts 94°
2026-04-25 16:30 29.00504 -57.55917 35019 ft 595 kts 94°
2026-04-25 16:31 29.00435 -57.46492 35015 ft 595 kts 94°
2026-04-25 16:31 29.00360 -57.37065 35015 ft 594 kts 94°
2026-04-25 16:32 29.00278 -57.27648 35009 ft 594 kts 94°
2026-04-25 16:32 29.00190 -57.18236 35018 ft 594 kts 94°
2026-04-25 16:33 29.00095 -57.08827 35022 ft 593 kts 94°
2026-04-25 16:33 28.99995 -56.99427 35019 ft 593 kts 94°
2026-04-25 16:34 29.00111 -56.90009 35013 ft 594 kts 91°
2026-04-25 16:34 29.00423 -56.80590 35012 ft 595 kts 90°
2026-04-25 16:35 29.00717 -56.71175 35019 ft 594 kts 90°
2026-04-25 16:35 29.00953 -56.61764 35015 ft 594 kts 91°
2026-04-25 16:36 29.01159 -56.52345 35004 ft 594 kts 91°
2026-04-25 16:36 29.01359 -56.42931 35017 ft 594 kts 91°
2026-04-25 16:37 29.01558 -56.33515 35012 ft 594 kts 91°
2026-04-25 16:37 29.01753 -56.24094 35007 ft 594 kts 91°
2026-04-25 16:38 29.01942 -56.14669 35007 ft 594 kts 91°
2026-04-25 16:38 29.02124 -56.05250 35010 ft 594 kts 91°
2026-04-25 16:39 29.02299 -55.95824 35007 ft 595 kts 91°
2026-04-25 16:39 29.02467 -55.86395 35009 ft 595 kts 91°
2026-04-25 16:40 29.02629 -55.76967 35012 ft 595 kts 91°
2026-04-25 16:40 29.02784 -55.67532 35007 ft 595 kts 91°
2026-04-25 16:41 29.02933 -55.58097 35002 ft 595 kts 91°
2026-04-25 16:41 29.03144 -55.43926 35008 ft 596 kts 91°
2026-04-25 16:42 29.03277 -55.34470 35006 ft 597 kts 91°
2026-04-25 16:42 29.03403 -55.25001 35002 ft 597 kts 91°
2026-04-25 16:43 29.03522 -55.15529 35002 ft 597 kts 91°
2026-04-25 16:43 29.03635 -55.06055 35005 ft 598 kts 91°
2026-04-25 16:44 29.03742 -54.96576 35002 ft 598 kts 91°
2026-04-25 16:44 29.03841 -54.87095 35001 ft 598 kts 91°
2026-04-25 16:45 29.03934 -54.77619 35002 ft 598 kts 91°
2026-04-25 16:45 29.04020 -54.68135 35001 ft 598 kts 91°
2026-04-25 16:46 29.04100 -54.58651 35001 ft 598 kts 91°
2026-04-25 16:46 29.04150 -54.52333 35003 ft 598 kts 91°
2026-04-25 16:47 29.04239 -54.39689 35002 ft 598 kts 91°
2026-04-25 16:47 29.04299 -54.30208 35002 ft 598 kts 91°
2026-04-25 16:48 29.04352 -54.20721 35001 ft 598 kts 91°
2026-04-25 16:48 29.04399 -54.11230 35003 ft 598 kts 91°
2026-04-25 16:49 29.04438 -54.01751 35000 ft 598 kts 91°
2026-04-25 16:49 29.04471 -53.92264 35001 ft 598 kts 91°
2026-04-25 16:50 29.04498 -53.82777 34997 ft 598 kts 91°
2026-04-25 16:50 29.04517 -53.73292 35010 ft 598 kts 92°
2026-04-25 16:51 29.04530 -53.63805 35008 ft 598 kts 92°
2026-04-25 16:51 29.04535 -53.57474 35005 ft 598 kts 92°
2026-04-25 16:52 29.04536 -53.44822 35009 ft 598 kts 92°
2026-04-25 16:52 29.04529 -53.35331 35007 ft 598 kts 92°
2026-04-25 16:53 29.04506 -53.21102 35007 ft 598 kts 92°
2026-04-25 16:54 29.04483 -53.11614 35007 ft 598 kts 92°
2026-04-25 16:54 29.04452 -53.02128 35006 ft 598 kts 92°
2026-04-25 16:55 29.04415 -52.92638 35006 ft 598 kts 92°
2026-04-25 16:55 29.04372 -52.83154 35005 ft 598 kts 92°
2026-04-25 16:56 29.04322 -52.73668 35007 ft 598 kts 92°
2026-04-25 16:56 29.04264 -52.64176 35007 ft 598 kts 92°
2026-04-25 16:57 29.04201 -52.54699 35007 ft 598 kts 92°
2026-04-25 16:57 29.04131 -52.45213 35007 ft 598 kts 92°
2026-04-25 16:58 29.04054 -52.35721 35005 ft 598 kts 92°
2026-04-25 16:58 29.03970 -52.26242 35005 ft 598 kts 92°
2026-04-25 16:59 29.03880 -52.16752 35005 ft 598 kts 92°
2026-04-25 16:59 29.03783 -52.07270 35005 ft 598 kts 92°
2026-04-25 17:00 29.03679 -51.97785 35005 ft 598 kts 92°
2026-04-25 17:00 29.03569 -51.88296 35006 ft 598 kts 92°
2026-04-25 17:01 29.03452 -51.78806 35004 ft 598 kts 92°
2026-04-25 17:01 29.03328 -51.69322 35003 ft 599 kts 92°
2026-04-25 17:02 29.03198 -51.59830 35004 ft 599 kts 92°
2026-04-25 17:02 29.03061 -51.50339 35004 ft 599 kts 92°
2026-04-25 17:03 29.02917 -51.40846 35006 ft 599 kts 92°
2026-04-25 17:03 29.02766 -51.31347 35008 ft 599 kts 92°
2026-04-25 17:04 29.02609 -51.21859 35008 ft 599 kts 92°
2026-04-25 17:04 29.02445 -51.12355 35009 ft 599 kts 92°
2026-04-25 17:05 29.02275 -51.02855 35004 ft 599 kts 92°
2026-04-25 17:05 29.02006 -50.88597 35011 ft 600 kts 92°
2026-04-25 17:06 29.01819 -50.79086 35010 ft 600 kts 92°
2026-04-25 17:06 29.01624 -50.69580 35007 ft 600 kts 92°
2026-04-25 17:07 29.01424 -50.60083 35008 ft 600 kts 92°
2026-04-25 17:07 29.01216 -50.50574 35007 ft 600 kts 92°
2026-04-25 17:08 29.01002 -50.41061 35009 ft 600 kts 92°
2026-04-25 17:08 29.00780 -50.31544 35009 ft 601 kts 93°
2026-04-25 17:09 29.00553 -50.22025 35013 ft 601 kts 92°
2026-04-25 17:09 29.00318 -50.12509 35013 ft 601 kts 93°
2026-04-25 17:10 29.00078 -50.02992 35011 ft 601 kts 93°
2026-04-25 17:10 28.99947 -49.93477 35012 ft 601 kts 90°
2026-04-25 17:11 29.00163 -49.83951 35017 ft 601 kts 89°
2026-04-25 17:11 29.00429 -49.74425 35011 ft 601 kts 89°
2026-04-25 17:12 29.00624 -49.64905 35018 ft 601 kts 89°
2026-04-25 17:12 29.00766 -49.55379 35019 ft 601 kts 90°
2026-04-25 17:13 29.00853 -49.49020 35018 ft 601 kts 90°
2026-04-25 17:13 29.01026 -49.36321 35018 ft 601 kts 90°
2026-04-25 17:14 29.01155 -49.26813 35019 ft 600 kts 90°
2026-04-25 17:14 29.01277 -49.17296 35018 ft 600 kts 90°
2026-04-25 17:15 29.01392 -49.07783 35018 ft 600 kts 90°
2026-04-25 17:15 29.01500 -48.98277 35015 ft 600 kts 89°
2026-04-25 17:16 29.01601 -48.88767 35021 ft 599 kts 89°
2026-04-25 17:16 29.01695 -48.79269 35018 ft 599 kts 90°
2026-04-25 17:17 29.01782 -48.69775 35031 ft 599 kts 90°
2026-04-25 17:17 29.01863 -48.60278 35033 ft 599 kts 90°
2026-04-25 17:18 29.01938 -48.50775 35030 ft 599 kts 90°
2026-04-25 17:18 29.02005 -48.41279 35036 ft 599 kts 90°
2026-04-25 17:19 29.02066 -48.31771 35036 ft 599 kts 90°
2026-04-25 17:19 29.02120 -48.22275 35038 ft 599 kts 90°
2026-04-25 17:20 29.02168 -48.12775 35031 ft 599 kts 90°
2026-04-25 17:20 29.02208 -48.03273 35029 ft 599 kts 90°
2026-04-25 17:21 29.02243 -47.93776 35033 ft 599 kts 90°
2026-04-25 17:21 29.02270 -47.84270 35043 ft 599 kts 90°
2026-04-25 17:22 29.02285 -47.77943 35039 ft 599 kts 90°
2026-04-25 17:22 29.02305 -47.65269 35038 ft 599 kts 90°
2026-04-25 17:23 29.02312 -47.55770 35051 ft 599 kts 90°
2026-04-25 17:23 29.02313 -47.46274 35040 ft 599 kts 90°
2026-04-25 17:24 29.02307 -47.36777 35041 ft 599 kts 90°
2026-04-25 17:24 29.02294 -47.27280 35056 ft 599 kts 90°
2026-04-25 17:25 29.02275 -47.17786 35047 ft 599 kts 90°
2026-04-25 17:25 29.02249 -47.08295 35039 ft 599 kts 90°
2026-04-25 17:26 29.02216 -46.98811 35045 ft 599 kts 90°
2026-04-25 17:26 29.02177 -46.89314 35059 ft 599 kts 90°
2026-04-25 17:27 29.02131 -46.79824 35051 ft 599 kts 90°
2026-04-25 17:27 29.02097 -46.73501 35049 ft 598 kts 90°
2026-04-25 17:28 29.02019 -46.60852 35051 ft 598 kts 90°
2026-04-25 17:28 29.01953 -46.51364 35053 ft 598 kts 90°
2026-04-25 17:29 29.01881 -46.41886 35052 ft 598 kts 90°
2026-04-25 17:29 29.01802 -46.32414 35062 ft 598 kts 90°
2026-04-25 17:30 29.01716 -46.22944 35066 ft 597 kts 90°
2026-04-25 17:30 29.01623 -46.13476 35055 ft 597 kts 90°
2026-04-25 17:31 29.01524 -46.04005 35059 ft 597 kts 90°
2026-04-25 17:31 29.01419 -45.94541 35061 ft 597 kts 90°
2026-04-25 17:32 29.01306 -45.85079 35063 ft 597 kts 90°
2026-04-25 17:32 29.01188 -45.75613 35071 ft 597 kts 90°
2026-04-25 17:33 29.01062 -45.66150 35064 ft 597 kts 90°
2026-04-25 17:33 29.00930 -45.56689 35068 ft 597 kts 90°
2026-04-25 17:34 29.00791 -45.47227 35066 ft 597 kts 90°
2026-04-25 17:34 29.00646 -45.37774 35066 ft 596 kts 90°
2026-04-25 17:35 29.00494 -45.28318 35074 ft 596 kts 91°
2026-04-25 17:35 29.00336 -45.18866 35080 ft 596 kts 91°
2026-04-25 17:36 29.00172 -45.09416 35075 ft 596 kts 91°
2026-04-25 17:36 28.99317 -45.00027 35072 ft 595 kts 102°
2026-04-25 17:37 28.97229 -44.90934 35074 ft 592 kts 112°
2026-04-25 17:37 28.94364 -44.82145 35082 ft 592 kts 113°
2026-04-25 17:38 28.92426 -44.76297 35075 ft 592 kts 113°
2026-04-25 17:38 28.88602 -44.64579 35075 ft 592 kts 112°
2026-04-25 17:39 28.85763 -44.55772 35077 ft 593 kts 112°
2026-04-25 17:39 28.82920 -44.46963 35081 ft 593 kts 112°
2026-04-25 17:40 28.80065 -44.38159 35080 ft 593 kts 112°
2026-04-25 17:40 28.77200 -44.29353 35080 ft 594 kts 112°
2026-04-25 17:41 28.74328 -44.20552 35083 ft 594 kts 112°
2026-04-25 17:41 28.71448 -44.11749 35081 ft 594 kts 112°
2026-04-25 17:42 28.68563 -44.02950 35087 ft 594 kts 112°
2026-04-25 17:42 28.65671 -43.94151 35085 ft 595 kts 112°
2026-04-25 17:43 28.62772 -43.85354 35089 ft 594 kts 113°
2026-04-25 17:43 28.59870 -43.76568 35093 ft 594 kts 113°
2026-04-25 17:44 28.56962 -43.67787 35088 ft 594 kts 113°
2026-04-25 17:44 28.54048 -43.59009 35092 ft 595 kts 113°
2026-04-25 17:45 28.52098 -43.53151 35087 ft 595 kts 113°
2026-04-25 17:45 28.48195 -43.41447 35095 ft 596 kts 113°
2026-04-25 17:46 28.45257 -43.32664 35091 ft 596 kts 113°
2026-04-25 17:46 28.42316 -43.23893 35092 ft 595 kts 113°
2026-04-25 17:47 28.39369 -43.15127 35094 ft 595 kts 113°
2026-04-25 17:47 28.36418 -43.06367 35100 ft 595 kts 113°
2026-04-25 17:48 28.31980 -42.93238 35097 ft 595 kts 113°
2026-04-25 17:49 28.29013 -42.84486 35096 ft 595 kts 113°
2026-04-25 17:49 28.26039 -42.75738 35097 ft 596 kts 113°
2026-04-25 17:50 28.23062 -42.66997 35094 ft 596 kts 113°
2026-04-25 17:50 28.20075 -42.58253 35100 ft 596 kts 113°
2026-04-25 17:51 28.17084 -42.49515 35099 ft 596 kts 113°
2026-04-25 17:51 28.14086 -42.40777 35098 ft 596 kts 113°
2026-04-25 17:52 28.11083 -42.32048 35103 ft 596 kts 113°
2026-04-25 17:52 28.08073 -42.23318 35102 ft 596 kts 113°
2026-04-25 17:53 28.05059 -42.14596 35101 ft 596 kts 113°
2026-04-25 17:53 28.02039 -42.05876 35103 ft 596 kts 113°
2026-04-25 17:54 27.98783 -41.97282 35098 ft 594 kts 121°
2026-04-25 17:54 27.94795 -41.89144 35106 ft 593 kts 122°
2026-04-25 17:55 27.90739 -41.81045 35104 ft 593 kts 122°
2026-04-25 17:55 27.86711 -41.72920 35104 ft 593 kts 122°
2026-04-25 17:56 27.82712 -41.64786 35104 ft 593 kts 122°
2026-04-25 17:56 27.78713 -41.56654 35104 ft 594 kts 122°
2026-04-25 17:57 27.74703 -41.48526 35103 ft 594 kts 122°
2026-04-25 17:57 27.70682 -41.40399 35104 ft 594 kts 122°
2026-04-25 17:58 27.66654 -41.32277 35104 ft 594 kts 122°
2026-04-25 17:58 27.62622 -41.24159 35110 ft 595 kts 122°
2026-04-25 17:59 27.58583 -41.16042 35109 ft 595 kts 122°
2026-04-25 17:59 27.54537 -41.07927 35108 ft 595 kts 122°
2026-04-25 18:00 27.50487 -40.99819 35102 ft 595 kts 122°
2026-04-25 18:00 27.46430 -40.91713 35106 ft 595 kts 122°
2026-04-25 18:01 27.42367 -40.83611 35116 ft 595 kts 122°
2026-04-25 18:01 27.38299 -40.75512 35098 ft 596 kts 122°
2026-04-25 18:02 27.34228 -40.67424 35113 ft 596 kts 122°
2026-04-25 18:02 27.30148 -40.59334 35113 ft 596 kts 122°
2026-04-25 18:03 27.26063 -40.51247 35111 ft 596 kts 122°
2026-04-25 18:03 27.21971 -40.43162 35110 ft 596 kts 122°
2026-04-25 18:04 27.17874 -40.35082 35112 ft 597 kts 122°
2026-04-25 18:04 27.13770 -40.27003 35115 ft 597 kts 122°
2026-04-25 18:05 27.09665 -40.18937 35106 ft 597 kts 122°
2026-04-25 18:05 27.05549 -40.10866 35110 ft 597 kts 122°
2026-04-25 18:06 27.01428 -40.02794 35115 ft 597 kts 122°
2026-04-25 18:06 26.97374 -39.94682 35107 ft 598 kts 120°
2026-04-25 18:07 26.93536 -39.86421 35112 ft 598 kts 119°
2026-04-25 18:07 26.89741 -39.78151 35113 ft 598 kts 119°
2026-04-25 18:08 26.85901 -39.69905 35109 ft 598 kts 120°
2026-04-25 18:08 26.82025 -39.61680 35109 ft 598 kts 120°
2026-04-25 18:09 26.78137 -39.53460 35104 ft 599 kts 120°
2026-04-25 18:09 26.74250 -39.45246 35109 ft 599 kts 120°
2026-04-25 18:10 26.70357 -39.37025 35107 ft 599 kts 120°
2026-04-25 18:10 26.66461 -39.28810 35105 ft 599 kts 120°
2026-04-25 18:11 26.62561 -39.20605 35104 ft 599 kts 120°
2026-04-25 18:11 26.58653 -39.12401 35106 ft 599 kts 120°
2026-04-25 18:12 26.54743 -39.04207 35105 ft 599 kts 120°
2026-04-25 18:12 26.50822 -38.96004 35104 ft 600 kts 120°
2026-04-25 18:13 26.46897 -38.87811 35103 ft 600 kts 120°
2026-04-25 18:13 26.42968 -38.79622 35102 ft 600 kts 120°
2026-04-25 18:14 26.37061 -38.67342 35104 ft 600 kts 120°
2026-04-25 18:14 26.33116 -38.59159 35102 ft 601 kts 120°
2026-04-25 18:15 26.29162 -38.50973 35103 ft 601 kts 120°
2026-04-25 18:15 26.25208 -38.42801 35103 ft 601 kts 120°
2026-04-25 18:16 26.21245 -38.34627 35103 ft 601 kts 120°
2026-04-25 18:17 26.15293 -38.22378 35103 ft 601 kts 120°
2026-04-25 18:17 26.11314 -38.14209 35105 ft 601 kts 120°
2026-04-25 18:18 26.07334 -38.06052 35102 ft 601 kts 120°
2026-04-25 18:18 26.03347 -37.97896 35101 ft 602 kts 120°
2026-04-25 18:19 25.99353 -37.89740 35101 ft 602 kts 120°
2026-04-25 18:19 25.95357 -37.81594 35105 ft 602 kts 120°
2026-04-25 18:20 25.91355 -37.73452 35099 ft 602 kts 120°
2026-04-25 18:20 25.87345 -37.65309 35099 ft 602 kts 120°
2026-04-25 18:21 25.83331 -37.57171 35098 ft 602 kts 120°
2026-04-25 18:21 25.79308 -37.49031 35105 ft 603 kts 120°
2026-04-25 18:22 25.75280 -37.40895 35103 ft 603 kts 120°
2026-04-25 18:22 25.71250 -37.32770 35102 ft 603 kts 120°
2026-04-25 18:23 25.67210 -37.24639 35111 ft 603 kts 120°
2026-04-25 18:23 25.63168 -37.16517 35108 ft 603 kts 120°
2026-04-25 18:24 25.59119 -37.08397 35110 ft 603 kts 120°
2026-04-25 18:24 25.55064 -37.00280 35106 ft 603 kts 121°
2026-04-25 18:25 25.51008 -36.92176 35106 ft 604 kts 121°
2026-04-25 18:25 25.46941 -36.84063 35112 ft 604 kts 121°
2026-04-25 18:26 25.42871 -36.75958 35108 ft 604 kts 121°
2026-04-25 18:26 25.38796 -36.67859 35108 ft 604 kts 121°
2026-04-25 18:27 25.34715 -36.59761 35115 ft 604 kts 121°
2026-04-25 18:27 25.30629 -36.51667 35115 ft 605 kts 121°
2026-04-25 18:28 25.26533 -36.43568 35110 ft 605 kts 121°
2026-04-25 18:28 25.22434 -36.35477 35113 ft 605 kts 121°
2026-04-25 18:29 25.16275 -36.23347 35107 ft 605 kts 121°
2026-04-25 18:30 25.08043 -36.07185 35114 ft 606 kts 121°
2026-04-25 18:30 25.03916 -35.99103 35109 ft 606 kts 121°
2026-04-25 18:31 24.99785 -35.91026 35107 ft 606 kts 121°
2026-04-25 18:31 24.95650 -35.82955 35105 ft 606 kts 121°
2026-04-25 18:32 24.91507 -35.74884 35123 ft 607 kts 121°
2026-04-25 18:32 24.87354 -35.66807 35122 ft 607 kts 121°
2026-04-25 18:33 24.83202 -35.58746 35120 ft 607 kts 121°
2026-04-25 18:33 24.79041 -35.50680 35114 ft 607 kts 121°
2026-04-25 18:34 24.74875 -35.42619 35118 ft 607 kts 121°
2026-04-25 18:34 24.70703 -35.34561 35116 ft 607 kts 121°
2026-04-25 18:35 24.66528 -35.26509 35120 ft 608 kts 121°
2026-04-25 18:35 24.62345 -35.18457 35120 ft 608 kts 121°
2026-04-25 18:36 24.58158 -35.10409 35118 ft 608 kts 121°
2026-04-25 18:36 24.53963 -35.02361 35122 ft 608 kts 121°
2026-04-25 18:37 24.49765 -34.94320 35121 ft 608 kts 121°
2026-04-25 18:37 24.45566 -34.86290 35120 ft 608 kts 121°
2026-04-25 18:38 24.41356 -34.78253 35124 ft 608 kts 121°
2026-04-25 18:38 24.37142 -34.70222 35122 ft 609 kts 121°
2026-04-25 18:39 24.32923 -34.62195 35122 ft 609 kts 121°
2026-04-25 18:39 24.28701 -34.54176 35124 ft 609 kts 122°
2026-04-25 18:40 24.24474 -34.46160 35123 ft 609 kts 122°
2026-04-25 18:40 24.20241 -34.38146 35124 ft 609 kts 122°
2026-04-25 18:41 24.16004 -34.30138 35124 ft 609 kts 122°
2026-04-25 18:41 24.11766 -34.22141 35125 ft 609 kts 122°
2026-04-25 18:42 24.08937 -34.16809 35125 ft 609 kts 122°
2026-04-25 18:42 24.03271 -34.06147 35122 ft 609 kts 122°
2026-04-25 18:43 23.99011 -33.98165 35124 ft 609 kts 122°
2026-04-25 18:43 23.94569 -33.90313 35123 ft 608 kts 124°
2026-04-25 18:44 23.90026 -33.82532 35124 ft 608 kts 124°
2026-04-25 18:44 23.85501 -33.74747 35124 ft 609 kts 124°
2026-04-25 18:45 23.81002 -33.66940 35123 ft 609 kts 124°
2026-04-25 18:45 23.76508 -33.59125 35126 ft 609 kts 124°
2026-04-25 18:46 23.72010 -33.51323 35127 ft 608 kts 124°
2026-04-25 18:46 23.67505 -33.43530 35121 ft 609 kts 124°
2026-04-25 18:47 23.62994 -33.35741 35124 ft 608 kts 124°
2026-04-25 18:47 23.58483 -33.27964 35121 ft 608 kts 124°
2026-04-25 18:48 23.53966 -33.20188 35123 ft 608 kts 124°
2026-04-25 18:48 23.49446 -33.12418 35123 ft 608 kts 124°
2026-04-25 18:49 23.44928 -33.04662 35119 ft 608 kts 124°
2026-04-25 18:49 23.40402 -32.96907 35120 ft 608 kts 124°
2026-04-25 18:50 23.35874 -32.89160 35120 ft 608 kts 124°
2026-04-25 18:50 23.31343 -32.81417 35118 ft 608 kts 124°
2026-04-25 18:51 23.28321 -32.76262 35115 ft 608 kts 124°
2026-04-25 18:51 23.22268 -32.65948 35116 ft 608 kts 125°
2026-04-25 18:52 23.17726 -32.58223 35118 ft 608 kts 125°
2026-04-25 18:52 23.13184 -32.50510 35117 ft 608 kts 125°
2026-04-25 18:53 23.08632 -32.42792 35114 ft 608 kts 125°
2026-04-25 18:53 23.04081 -32.35087 35112 ft 607 kts 125°
2026-04-25 18:54 22.97247 -32.23539 35112 ft 607 kts 125°
2026-04-25 18:55 22.92691 -32.15853 35110 ft 607 kts 125°
2026-04-25 18:55 22.88132 -32.08175 35110 ft 607 kts 125°
2026-04-25 18:56 22.83570 -32.00502 35108 ft 606 kts 125°
2026-04-25 18:56 22.79010 -31.92844 35113 ft 606 kts 125°
2026-04-25 18:57 22.74450 -31.85199 35111 ft 605 kts 125°
2026-04-25 18:57 22.69887 -31.77557 35109 ft 605 kts 125°
2026-04-25 18:58 22.65321 -31.69923 35106 ft 605 kts 125°
2026-04-25 18:58 22.58471 -31.58492 35105 ft 604 kts 126°
2026-04-25 18:59 22.49331 -31.43277 35105 ft 604 kts 126°
2026-04-25 19:00 22.42466 -31.31878 35105 ft 604 kts 126°
2026-04-25 19:01 22.35597 -31.20497 35102 ft 604 kts 126°
2026-04-25 19:01 22.31018 -31.12922 35100 ft 603 kts 126°
2026-04-25 19:02 22.24142 -31.01569 35100 ft 603 kts 126°
2026-04-25 19:03 22.18794 -30.92756 35096 ft 603 kts 126°
2026-04-25 19:03 22.12678 -30.82696 35098 ft 602 kts 126°
2026-04-25 19:04 22.05795 -30.71396 35098 ft 602 kts 126°
2026-04-25 19:05 21.96610 -30.56353 35103 ft 602 kts 126°
2026-04-25 19:06 21.92009 -30.48834 35105 ft 602 kts 126°
2026-04-25 19:06 21.85115 -30.37586 35098 ft 601 kts 126°
2026-04-25 19:07 21.78217 -30.26356 35090 ft 601 kts 126°
2026-04-25 19:08 21.71318 -30.15146 35086 ft 600 kts 126°
2026-04-25 19:09 21.63655 -30.02722 35087 ft 599 kts 126°
2026-04-25 19:10 21.55221 -29.89077 35085 ft 599 kts 126°
2026-04-25 19:10 21.50617 -29.81643 35084 ft 598 kts 126°
2026-04-25 19:11 21.45941 -29.74283 35080 ft 597 kts 128°
2026-04-25 19:11 21.41123 -29.67047 35078 ft 597 kts 129°
2026-04-25 19:12 21.36289 -29.59827 35080 ft 597 kts 128°
2026-04-25 19:12 21.31485 -29.52596 35080 ft 596 kts 128°
2026-04-25 19:13 21.26693 -29.45353 35077 ft 596 kts 128°
2026-04-25 19:13 21.21907 -29.38126 35078 ft 596 kts 128°
2026-04-25 19:14 21.17111 -29.30901 35076 ft 596 kts 128°
2026-04-25 19:14 21.12312 -29.23684 35073 ft 596 kts 128°
2026-04-25 19:15 21.07510 -29.16473 35073 ft 596 kts 128°
2026-04-25 19:15 21.02704 -29.09264 35070 ft 596 kts 128°
2026-04-25 19:16 20.97900 -29.02067 35073 ft 596 kts 128°
2026-04-25 19:16 20.93087 -28.94866 35068 ft 596 kts 128°
2026-04-25 19:17 20.88277 -28.87677 35067 ft 596 kts 128°
2026-04-25 19:17 20.83463 -28.80493 35066 ft 595 kts 128°
2026-04-25 19:18 20.78649 -28.73317 35064 ft 595 kts 128°
2026-04-25 19:18 20.73836 -28.66151 35064 ft 595 kts 128°
2026-04-25 19:19 20.69020 -28.58991 35059 ft 595 kts 128°
2026-04-25 19:19 20.64203 -28.51838 35065 ft 594 kts 128°
2026-04-25 19:20 20.59382 -28.44687 35059 ft 594 kts 128°
2026-04-25 19:20 20.54568 -28.37556 35058 ft 593 kts 128°
2026-04-25 19:21 20.49752 -28.30431 35056 ft 593 kts 128°
2026-04-25 19:21 20.42533 -28.19767 35051 ft 592 kts 128°
2026-04-25 19:22 20.37716 -28.12661 35051 ft 592 kts 128°
2026-04-25 19:23 20.30498 -28.02031 35057 ft 591 kts 129°
2026-04-25 19:23 20.23272 -27.91409 35053 ft 591 kts 129°
2026-04-25 19:24 20.18458 -27.84342 35050 ft 591 kts 129°
2026-04-25 19:25 20.08825 -27.70229 35049 ft 590 kts 129°
2026-04-25 19:25 20.04006 -27.63182 35048 ft 590 kts 129°
2026-04-25 19:26 19.99189 -27.56145 35044 ft 590 kts 129°
2026-04-25 19:26 19.94373 -27.49117 35045 ft 589 kts 129°
2026-04-25 19:27 19.91160 -27.44433 35046 ft 589 kts 129°
2026-04-25 19:27 19.84741 -27.35088 35042 ft 588 kts 129°
2026-04-25 19:28 19.79925 -27.28087 35041 ft 588 kts 129°
2026-04-25 19:28 19.75111 -27.21096 35036 ft 588 kts 129°
2026-04-25 19:29 19.70295 -27.14109 35039 ft 587 kts 129°
2026-04-25 19:29 19.65480 -27.07134 35035 ft 587 kts 129°
2026-04-25 19:30 19.60665 -27.00166 35037 ft 587 kts 129°
2026-04-25 19:30 19.55854 -26.93211 35038 ft 586 kts 129°
2026-04-25 19:31 19.51037 -26.86256 35033 ft 586 kts 129°
2026-04-25 19:31 19.46222 -26.79311 35036 ft 586 kts 129°
2026-04-25 19:32 19.41409 -26.72378 35035 ft 585 kts 129°
2026-04-25 19:32 19.38199 -26.67759 35035 ft 585 kts 129°
2026-04-25 19:33 19.31778 -26.58528 35034 ft 585 kts 129°
2026-04-25 19:33 19.26965 -26.51618 35028 ft 584 kts 129°
2026-04-25 19:34 19.22156 -26.44721 35032 ft 584 kts 129°
2026-04-25 19:34 19.17343 -26.37827 35031 ft 583 kts 129°
2026-04-25 19:35 19.12535 -26.30947 35027 ft 583 kts 129°
2026-04-25 19:35 19.07724 -26.24070 35024 ft 582 kts 129°
2026-04-25 19:36 19.02919 -26.17209 35026 ft 582 kts 129°
2026-04-25 19:36 18.98117 -26.10360 35026 ft 581 kts 129°
2026-04-25 19:37 18.93320 -26.03514 35026 ft 581 kts 129°
2026-04-25 19:37 18.88559 -25.96649 35023 ft 580 kts 128°
2026-04-25 19:38 18.83819 -25.89792 35023 ft 579 kts 128°
2026-04-25 19:38 18.79073 -25.82942 35023 ft 578 kts 128°
2026-04-25 19:39 18.74333 -25.76120 35019 ft 577 kts 128°
2026-04-25 19:39 18.69596 -25.69313 35017 ft 577 kts 128°
2026-04-25 19:40 18.64860 -25.62513 35018 ft 576 kts 128°
2026-04-25 19:40 18.60127 -25.55722 35019 ft 576 kts 128°
2026-04-25 19:41 18.55396 -25.48942 35017 ft 575 kts 128°
2026-04-25 19:41 18.52245 -25.44431 35019 ft 575 kts 128°
2026-04-25 19:42 18.45937 -25.35410 35011 ft 574 kts 128°
2026-04-25 19:42 18.41214 -25.28662 35013 ft 573 kts 128°
2026-04-25 19:43 18.36494 -25.21927 35011 ft 572 kts 129°
2026-04-25 19:43 18.31776 -25.15203 35015 ft 572 kts 129°
2026-04-25 19:44 18.27066 -25.08495 35011 ft 571 kts 129°
2026-04-25 19:44 18.22360 -25.01801 35010 ft 570 kts 129°
2026-04-25 19:45 18.17654 -24.95113 35014 ft 569 kts 129°
2026-04-25 19:45 18.12958 -24.88447 35003 ft 568 kts 129°
2026-04-25 19:46 18.08260 -24.81784 35007 ft 568 kts 129°
2026-04-25 19:46 18.03565 -24.75133 35004 ft 567 kts 129°
2026-04-25 19:47 17.98878 -24.68500 35003 ft 567 kts 129°
2026-04-25 19:47 17.94187 -24.61867 35003 ft 566 kts 129°
2026-04-25 19:48 17.89506 -24.55256 35001 ft 565 kts 129°
2026-04-25 19:48 17.84825 -24.48649 34998 ft 565 kts 129°
2026-04-25 19:49 17.81705 -24.44251 34995 ft 564 kts 129°
2026-04-25 19:49 17.75470 -24.35466 34996 ft 564 kts 129°
2026-04-25 19:50 17.68447 -24.25615 34994 ft 563 kts 129°
2026-04-25 19:51 17.63735 -24.19075 34994 ft 563 kts 129°
2026-04-25 19:51 17.59023 -24.12546 34991 ft 563 kts 129°
2026-04-25 19:52 17.54313 -24.06014 34991 ft 562 kts 129°
2026-04-25 19:52 17.49610 -23.99493 34992 ft 562 kts 129°
2026-04-25 19:53 17.44902 -23.92971 34989 ft 562 kts 129°
2026-04-25 19:53 17.40195 -23.86458 34987 ft 562 kts 129°
2026-04-25 19:54 17.35490 -23.79953 34985 ft 562 kts 129°
2026-04-25 19:54 17.30781 -23.73451 34982 ft 562 kts 129°
2026-04-25 19:55 17.26070 -23.66952 34982 ft 561 kts 130°
2026-04-25 19:55 17.21363 -23.60463 34978 ft 561 kts 130°
2026-04-25 19:56 17.16658 -23.53984 34980 ft 560 kts 130°
2026-04-25 19:56 17.11957 -23.47516 34981 ft 560 kts 130°
2026-04-25 19:57 17.07254 -23.41053 34977 ft 559 kts 130°
2026-04-25 19:57 17.02559 -23.34605 34978 ft 559 kts 130°
2026-04-25 19:58 16.97858 -23.28156 34970 ft 558 kts 130°
2026-04-25 19:58 16.93163 -23.21721 34959 ft 558 kts 130°
2026-04-25 19:59 16.88468 -23.15290 34948 ft 558 kts 130°
2026-04-25 19:59 16.83771 -23.08863 34945 ft 557 kts 130°
2026-04-25 20:00 16.79078 -23.02446 34941 ft 557 kts 130°
2026-04-25 20:00 16.74665 -22.95819 34954 ft 560 kts 122°
2026-04-25 20:01 16.69948 -22.84692 34949 ft 562 kts 110°
2026-04-25 20:01 16.67349 -22.77016 34949 ft 562 kts 110°
2026-04-25 20:02 16.64728 -22.69349 34942 ft 562 kts 111°
2026-04-25 20:02 16.62067 -22.61702 34941 ft 562 kts 111°
2026-04-25 20:03 16.59392 -22.54071 34945 ft 562 kts 111°
2026-04-25 20:03 16.56715 -22.46438 34947 ft 562 kts 111°
2026-04-25 20:04 16.54038 -22.38803 34945 ft 561 kts 111°
2026-04-25 20:04 16.51364 -22.31184 34948 ft 561 kts 111°
2026-04-25 20:05 16.48685 -22.23560 34949 ft 561 kts 111°
2026-04-25 20:05 16.46002 -22.15937 34947 ft 561 kts 111°
2026-04-25 20:06 16.43317 -22.08318 34943 ft 561 kts 111°
2026-04-25 20:06 16.40630 -22.00703 34946 ft 561 kts 111°
2026-04-25 20:07 16.37943 -21.93095 34961 ft 561 kts 111°
2026-04-25 20:07 16.35253 -21.85491 34957 ft 561 kts 111°
2026-04-25 20:08 16.32560 -21.77887 34953 ft 561 kts 111°
2026-04-25 20:08 16.29866 -21.70286 34941 ft 561 kts 111°
2026-04-25 20:09 16.27162 -21.62690 34945 ft 561 kts 111°
2026-04-25 20:09 16.24435 -21.55107 34944 ft 560 kts 111°
2026-04-25 20:10 16.21706 -21.47532 34953 ft 560 kts 111°
2026-04-25 20:10 16.18978 -21.39959 34946 ft 560 kts 111°
2026-04-25 20:11 16.16248 -21.32382 34945 ft 560 kts 111°
2026-04-25 20:11 16.13514 -21.24801 34942 ft 560 kts 112°
2026-04-25 20:12 16.10780 -21.17233 34946 ft 560 kts 112°
2026-04-25 20:12 16.08956 -21.12188 34942 ft 560 kts 112°
2026-04-25 20:13 16.05304 -21.02102 34940 ft 560 kts 112°
2026-04-25 20:13 16.02559 -20.94533 34939 ft 560 kts 112°
2026-04-25 20:14 15.99814 -20.86972 34936 ft 560 kts 112°
2026-04-25 20:14 15.97067 -20.79414 34938 ft 560 kts 112°
2026-04-25 20:15 15.94319 -20.71863 34939 ft 560 kts 112°
2026-04-25 20:15 15.91566 -20.64309 34926 ft 560 kts 112°
2026-04-25 20:16 15.88811 -20.56757 34932 ft 560 kts 112°
2026-04-25 20:16 15.86055 -20.49211 34933 ft 560 kts 112°
2026-04-25 20:17 15.83294 -20.41663 34928 ft 560 kts 112°
2026-04-25 20:17 15.80533 -20.34121 34928 ft 560 kts 112°
2026-04-25 20:18 15.77772 -20.26592 34928 ft 560 kts 112°
2026-04-25 20:18 15.75006 -20.19055 34922 ft 559 kts 112°
2026-04-25 20:19 15.72242 -20.11531 34926 ft 559 kts 112°
2026-04-25 20:19 15.69475 -20.04007 34931 ft 559 kts 112°
2026-04-25 20:20 15.66719 -19.96483 34929 ft 559 kts 111°
2026-04-25 20:20 15.64034 -19.88933 34918 ft 559 kts 111°
2026-04-25 20:21 15.61362 -19.81386 34918 ft 559 kts 111°
2026-04-25 20:21 15.58678 -19.73847 34917 ft 558 kts 111°
2026-04-25 20:22 15.56882 -19.68823 34919 ft 558 kts 111°
2026-04-25 20:22 15.53289 -19.58784 34919 ft 558 kts 111°
2026-04-25 20:23 15.50597 -19.51269 34919 ft 557 kts 111°
2026-04-25 20:23 15.47903 -19.43754 34915 ft 557 kts 111°
2026-04-25 20:24 15.45225 -19.36239 34913 ft 557 kts 110°
2026-04-25 20:24 15.42613 -19.28700 34915 ft 557 kts 110°
2026-04-25 20:25 15.40016 -19.21163 34913 ft 556 kts 110°
2026-04-25 20:25 15.37405 -19.13630 34914 ft 556 kts 110°
2026-04-25 20:26 15.34787 -19.06110 34908 ft 556 kts 110°
2026-04-25 20:26 15.32166 -18.98593 34909 ft 556 kts 110°
2026-04-25 20:27 15.29546 -18.91086 34907 ft 555 kts 110°
2026-04-25 20:27 15.26924 -18.83581 34906 ft 555 kts 110°
2026-04-25 20:28 15.24301 -18.76083 34905 ft 555 kts 110°
2026-04-25 20:28 15.21679 -18.68594 34903 ft 554 kts 110°
2026-04-25 20:29 15.19056 -18.61115 34905 ft 554 kts 110°
2026-04-25 20:29 15.16433 -18.53641 34900 ft 553 kts 110°
2026-04-25 20:30 15.13809 -18.46175 34901 ft 553 kts 110°
2026-04-25 20:30 15.11181 -18.38708 34897 ft 553 kts 110°
2026-04-25 20:31 15.08556 -18.31255 34896 ft 553 kts 110°
2026-04-25 20:31 15.05926 -18.23799 34897 ft 552 kts 110°
2026-04-25 20:32 15.03298 -18.16356 34895 ft 552 kts 110°
2026-04-25 20:32 15.00667 -18.08915 34892 ft 552 kts 110°
2026-04-25 20:33 14.98037 -18.01482 34892 ft 551 kts 110°
2026-04-25 20:33 14.96284 -17.96534 34894 ft 551 kts 110°
2026-04-25 20:34 14.92820 -17.86620 34893 ft 550 kts 110°
2026-04-25 20:34 14.90257 -17.79187 34882 ft 550 kts 110°
2026-04-25 20:35 14.87699 -17.71761 34623 ft 549 kts 110°
2026-04-25 20:35 14.86417 -17.68047 34232 ft 550 kts 110°
2026-04-25 20:35 14.85134 -17.64345 33746 ft 546 kts 110°
2026-04-25 20:36 14.83859 -17.60683 33213 ft 541 kts 109°
2026-04-25 20:36 14.82582 -17.57040 32640 ft 536 kts 109°
2026-04-25 20:36 14.81312 -17.53444 31902 ft 532 kts 109°
2026-04-25 20:36 14.80041 -17.49878 31196 ft 527 kts 109°
2026-04-25 20:37 14.78772 -17.46350 30508 ft 523 kts 109°
2026-04-25 20:37 14.77500 -17.42852 29830 ft 519 kts 109°
2026-04-25 20:37 14.76230 -17.39386 29030 ft 516 kts 110°
2026-04-25 20:37 14.74961 -17.35935 28139 ft 514 kts 110°
2026-04-25 20:38 14.73697 -17.32493 27197 ft 513 kts 110°
2026-04-25 20:38 14.72435 -17.29049 26263 ft 513 kts 110°
2026-04-25 20:38 14.71184 -17.25615 25348 ft 512 kts 110°
2026-04-25 20:38 14.69954 -17.22222 24453 ft 492 kts 110°
2026-04-25 20:39 14.68799 -17.19014 23592 ft 465 kts 110°
2026-04-25 20:39 14.67691 -17.15972 22638 ft 442 kts 114°
2026-04-25 20:39 14.66152 -17.13330 21657 ft 422 kts 132°
2026-04-25 20:39 14.65494 -17.12601 21347 ft 416 kts 138°
2026-04-25 20:40 14.61480 -17.10326 19848 ft 385 kts 171°
2026-04-25 20:40 14.58900 -17.10231 19304 ft 362 kts 193°
2026-04-25 20:40 14.56583 -17.11034 19165 ft 349 kts 208°
2026-04-25 20:40 14.54453 -17.12203 19069 ft 346 kts 212°
2026-04-25 20:41 14.52383 -17.13454 18980 ft 345 kts 213°
2026-04-25 20:41 14.50327 -17.14721 18914 ft 345 kts 214°
2026-04-25 20:41 14.48276 -17.15993 18871 ft 345 kts 214°
2026-04-25 20:41 14.46229 -17.17265 18866 ft 344 kts 214°
2026-04-25 20:42 14.44183 -17.18539 18861 ft 344 kts 214°
2026-04-25 20:42 14.42135 -17.19816 18857 ft 345 kts 214°
2026-04-25 20:42 14.40090 -17.21091 18856 ft 345 kts 214°
2026-04-25 20:42 14.38041 -17.22375 18824 ft 345 kts 214°
2026-04-25 20:43 14.36011 -17.23674 18495 ft 345 kts 214°
2026-04-25 20:43 14.33980 -17.24981 18080 ft 345 kts 215°
2026-04-25 20:43 14.31956 -17.26287 17633 ft 343 kts 215°
2026-04-25 20:43 14.29949 -17.27586 17225 ft 340 kts 214°
2026-04-25 20:44 14.27959 -17.28879 16925 ft 334 kts 215°
2026-04-25 20:44 14.26018 -17.30112 16861 ft 327 kts 211°
2026-04-25 20:44 14.23973 -17.31105 16680 ft 326 kts 205°
2026-04-25 20:44 14.21881 -17.31978 16364 ft 324 kts 204°
2026-04-25 20:45 14.19799 -17.32821 16073 ft 321 kts 204°
2026-04-25 20:45 14.17729 -17.33653 15937 ft 318 kts 204°
2026-04-25 20:45 14.15685 -17.34473 15894 ft 316 kts 204°
2026-04-25 20:45 14.13644 -17.35291 15860 ft 315 kts 204°
2026-04-25 20:46 14.11610 -17.36105 15866 ft 315 kts 204°
2026-04-25 20:46 14.09571 -17.36920 15862 ft 315 kts 204°
2026-04-25 20:46 14.07532 -17.37735 15800 ft 314 kts 204°
2026-04-25 20:46 14.05492 -17.38551 15428 ft 316 kts 204°
2026-04-25 20:47 14.03447 -17.39373 15052 ft 316 kts 204°
2026-04-25 20:47 14.01409 -17.40196 14689 ft 314 kts 204°
2026-04-25 20:47 13.99383 -17.41019 14320 ft 313 kts 204°
2026-04-25 20:47 13.97343 -17.41732 13921 ft 310 kts 191°
2026-04-25 20:48 13.95191 -17.41649 13560 ft 314 kts 167°
2026-04-25 20:48 13.93237 -17.40655 13171 ft 318 kts 143°
2026-04-25 20:48 13.91813 -17.38913 12763 ft 323 kts 119°
2026-04-25 20:48 13.91146 -17.36718 12373 ft 324 kts 100°
2026-04-25 20:49 13.90927 -17.34410 11962 ft 325 kts 95°
2026-04-25 20:49 13.90813 -17.32095 11559 ft 325 kts 94°
2026-04-25 20:49 13.90720 -17.29779 11152 ft 324 kts 94°
2026-04-25 20:49 13.90829 -17.27496 10712 ft 321 kts 76°
2026-04-25 20:50 13.91911 -17.25506 10313 ft 324 kts 46°
2026-04-25 20:50 13.93767 -17.24235 9950 ft 323 kts 25°
2026-04-25 20:50 13.95859 -17.23403 9544 ft 322 kts 19°
2026-04-25 20:50 13.97913 -17.22706 9145 ft 302 kts 18°
2026-04-25 20:51 13.99890 -17.22031 8814 ft 300 kts 19°
2026-04-25 20:51 14.01855 -17.21329 8409 ft 300 kts 19°
2026-04-25 20:51 14.03819 -17.20599 8015 ft 301 kts 20°
2026-04-25 20:51 14.05782 -17.19847 7610 ft 302 kts 20°
2026-04-25 20:52 14.07755 -17.19076 7138 ft 305 kts 20°
2026-04-25 20:52 14.09065 -17.18558 7008 ft 300 kts 20°
2026-04-25 20:52 14.11582 -17.17553 6911 ft 282 kts 20°
2026-04-25 20:52 14.13322 -17.16855 6852 ft 261 kts 20°
2026-04-25 20:53 14.15001 -17.16180 6855 ft 257 kts 20°
2026-04-25 20:53 14.16653 -17.15515 6854 ft 255 kts 20°
2026-04-25 20:53 14.18303 -17.14850 6862 ft 256 kts 20°
2026-04-25 20:53 14.19959 -17.14182 6863 ft 256 kts 20°
2026-04-25 20:54 14.21616 -17.13513 6859 ft 256 kts 20°
2026-04-25 20:54 14.23275 -17.12845 6860 ft 256 kts 20°
2026-04-25 20:54 14.24931 -17.12176 6817 ft 259 kts 20°
2026-04-25 20:54 14.26629 -17.11490 6495 ft 265 kts 20°
2026-04-25 20:55 14.28347 -17.10795 6138 ft 266 kts 20°
2026-04-25 20:55 14.30066 -17.10099 5757 ft 267 kts 20°
2026-04-25 20:55 14.31793 -17.09402 5389 ft 267 kts 20°
2026-04-25 20:55 14.33521 -17.08703 5015 ft 268 kts 20°
2026-04-25 20:56 14.35222 -17.08014 4940 ft 256 kts 20°
2026-04-25 20:56 14.36825 -17.07366 4925 ft 241 kts 20°
2026-04-25 20:56 14.38359 -17.06780 4840 ft 230 kts 12°
2026-04-25 20:56 14.39935 -17.06787 4875 ft 227 kts 352°
2026-04-25 20:57 14.41529 -17.06975 4685 ft 234 kts 355°
2026-04-25 20:57 14.43130 -17.07050 4437 ft 228 kts 358°
2026-04-25 20:57 14.44700 -17.07073 4145 ft 224 kts 359°
2026-04-25 20:57 14.46252 -17.07087 3850 ft 223 kts 359°
2026-04-25 20:58 14.47795 -17.07101 3597 ft 222 kts 360°
2026-04-25 20:58 14.49336 -17.07115 3306 ft 222 kts 359°
2026-04-25 20:58 14.50875 -17.07130 3029 ft 221 kts
2026-04-25 20:58 14.52402 -17.07142 2747 ft 219 kts 359°
2026-04-25 20:59 14.53866 -17.07158 2477 ft 203 kts
2026-04-25 20:59 14.55228 -17.07171 2218 ft 189 kts 360°
2026-04-25 20:59 14.56523 -17.07183 1994 ft 185 kts
2026-04-25 20:59 14.57770 -17.07195 1756 ft 169 kts
2026-04-25 21:00 14.58869 -17.07205 1545 ft 150 kts
2026-04-25 21:00 14.59215 -17.07209 1495 ft 148 kts
2026-04-25 21:00 14.61840 -17.07234 1020 ft 145 kts 359°
2026-04-25 21:01 14.62847 -17.07242 841 ft 143 kts 360°
2026-04-25 21:01 14.63827 -17.07251 632 ft 138 kts 358°
2026-04-25 21:01 14.64781 -17.07255 418 ft 136 kts 359°
2026-04-25 21:01 14.65718 -17.07256 273 ft 133 kts 359°
2026-04-25 21:02 14.66518 -17.07268 270 ft 94 kts 360°
2026-04-25 21:02 14.66977 -17.07263 272 ft 38 kts 10°
2026-04-25 21:02 14.67066 -17.07193 272 ft 2 kts 71°
2026-04-25 21:02 14.67067 -17.07192 272 ft 0 kts 72°
2026-04-25 21:03 14.67074 -17.07168 272 ft 16 kts 71°
2026-04-25 21:03 14.67127 -17.06970 276 ft 0 kts 82°
2026-04-25 21:04 14.67126 -17.06955 276 ft 7 kts 99°
2026-04-25 21:04 14.67111 -17.06926 276 ft 0 kts 124°
2026-04-25 21:04 14.67086 -17.06874 276 ft 2 kts 96°
2026-04-25 21:04 14.67086 -17.06867 276 ft 0 kts 95°
2026-04-25 21:05 14.67086 -17.06863 276 ft 0 kts 94°